Regional Weather Roundup
Issued by NWS Grand Forks, ND

Home | Current Version | Previous Version | Graphics & Text | Print | Product List | Glossary On
Versions: 1 2 3 4 5 6 7 8 9 10 11 12 13 14 15 16 17 18 19 20 21 22 23 24 25 26 27 28 29 30 31 32 33 34 35 36 37 38 39 40 41 42 43 44 45 46 47 48 49 50
709
ASUS43 KFGF 211110
RWRFGF
PRAIRIE TO PINES  WEATHER ROUNDUP
NATIONAL WEATHER SERVICE EASTERN NORTH DAKOTA/GRAND FORKS ND
500 AM CST SAT JAN 21 2017

 **SATELLITE DATA USED TO AUGMENT SKY COVER AT AUTOMATED STATIONS**
 *****  WEATHER ACROSS EASTERN NORTH DAKOTA  *****

CITY           SKY/WX    TMP DP  RH WIND       PRES   REMARKS
GRAND FORKS    CLOUDY    35  32  88 SE8       29.39F
GRAND FRKS AFB CLOUDY    34  33  99 SE8       29.38F
DEVILS LAKE    MIX PCPN  34  34 100 SE9       29.33F VSB 1/2
FARGO          CLOUDY    38  35  89 SE14      29.38F FOG
WAHPETON ARPT  CLOUDY    34  32  93 SE10      29.39F
$$

 ***** WEATHER ACROSS CENTRAL AND WESTERN NORTH DAKOTA  *****

CITY           SKY/WX    TMP DP  RH WIND       PRES   REMARKS
BISMARCK       CLOUDY    30  28  92 NW3       29.32S
MINOT          CLOUDY    27  26  96 CALM      29.30R FOG
JAMESTOWN      FOG       33  33 100 SE14      29.32R VSB 1/4 WCI  23
MINOT AFB      CLOUDY    27  25  93 CALM      29.30S FOG
GARRISON         N/A     24  22  91 CALM      29.29F
WILLISTON      CLOUDY    27  24  89 SW3       29.30S
DICKINSON      CLOUDY    30  26  85 W15       29.27R WCI  19
HETTINGER      CLOUDY    31  27  85 W16       29.31R WCI  20
$$

 *****  OTHER AIRPORT OBSERVATIONS IN OUR AREA  *****

CITY           SKY/WX    TMP DP  RH WIND       PRES   REMARKS
WALHALLA       NOT AVBL
GRAFTON AIRPOR CLOUDY    34  34 100 SE12      29.42S
VALLEY CITY AR FOG       32  32 100 SE9       29.36S VSB 1/4 WCI  24
CANDO          NOT AVBL
CAVALIER APRT  FOG       34  34 100 SE6       29.40S VSB 1
GWINNER        CLOUDY    34  34 100 SE12      29.35F VSB 1/4
SHEYENNE NWR     N/A     33  33 100 SE8       29.95S
ROLLA            N/A    N/A N/A N/A MISG        N/A
 ***** THE ABOVE OBSERVATIONS ARE NON NWS ARE NOT QUALITY
       CONTROLLED AND MAY MIS-REPORT RAIN FOR SNOW...
$$

  *****  WEATHER ACROSS NORTHERN MINNESOTA  *****

CITY           SKY/WX    TMP DP  RH WIND       PRES   REMARKS
FLAG ISLAND    CLOUDY    34  32  93 E6        29.47S FOG
WARROAD        DRIZZLE   36  30  80 SE7       29.46S
ROSEAU         DRIZZLE   36  30  80 SE6       29.45S
HALLOCK        CLOUDY    37  36  93 SE10      29.41F
THF RVR FALLS  CLOUDY    34  33  96 SE15      29.42F WCI  24
BAUDETTE       CLOUDY    34  33  96 SE7       29.47F
WASKISH        CLOUDY    34  34 100 E7        29.47F
CROOKSTON      CLOUDY    36  34  93 SE8       29.42S
GREENBUSH NDAW   N/A     34  34 100 E5          N/A
$$
  *****  WEATHER ACROSS CENTRAL AND WEST MINNESOTA  *****

CITY           SKY/WX    TMP DP  RH WIND       PRES   REMARKS
FOSSTON        CLOUDY    34  32  93 E8        29.43S
BEMIDJI        CLOUDY    33  33 100 E6        29.44F FOG
PARK RAPIDS    FOG       34  31  88 E7        29.42F VSB 1/2
ELBOW LAKE     CLOUDY    33  33 100 SE12      29.40F FOG     WCI  24
WADENA         FOG       32  32 100 E5        29.43S VSB 1/4
DETROIT LAKES  CLOUDY    34  34 100 SE14      29.42S FOG     WCI  24
MOORHEAD       CLOUDY    34  34 100 SE7       29.40S
FERGUS FALLS   CLOUDY    36  36 100 SE13      29.44S
MORRIS MN      CLOUDY    34  34 100 E10       29.38F FOG
STAPLES        FOG       34  34 100 CALM      29.44S VSB 1
$$
  *****  WEATHER ELSEWHERE ACROSS MINNESOTA  *****

CITY           SKY/WX    TMP DP  RH WIND       PRES   REMARKS
DULUTH         DRZL/FOG  34  34 100 E6        29.50S VSB 1/8
INTRNTL FALLS  CLOUDY    33  32  96 E6        29.50S
ELY            CLOUDY    34  34 100 CALM      29.51S
CLOQUET        SNOW      34  34 100 E5        29.49F VSB 1/4
WHEATON        CLOUDY    39  39 100 E12       29.40F FOG
BRAINERD       FOG       33  33 100 E3        29.46F VSB 3/4
HIBBING        FOG       32  32 100 SE7       29.49S VSB 1/2
ALEXANDRIA     CLOUDY    33  33 100 E8        29.41F FOG
SAINT CLOUD    FOG       34  34 100 E6        29.45S VSB 1/4
MINNEAPOLIS    CLOUDY    35  34  96 E7        29.45F FOG
$$

  *****  WEATHER ACROSS SOUTH DAKOTA  *****

CITY           SKY/WX    TMP DP  RH WIND       PRES   REMARKS
SIOUX FALLS    FOG       36  36 100 SE7       29.34F VSB 1/4
BROOKINGS      MIX PCPN  36  34  93 SE12      29.32F FOG
WATERTOWN      FOG       35  35 100 SE5       29.31F VSB 1/2
HURON          CLOUDY    25  24  96 NW10      29.33S WCI  15
SISSETON         N/A     33  33 100 SE7       29.36F
ABERDEEN       CLOUDY    31  29  92 CALM      29.33S FOG
MITCHELL       MOCLDY    34  32  92 W3        29.34S
PIERRE         CLOUDY    26  25  96 W6        29.32S WCI  19
MOBRIDGE       CLOUDY    29  26  89 CALM      29.28R FOG
RAPID CITY     CLOUDY    33  30  88 N9        29.34S
$$

  *****  SOME WEATHER IN NEARBY STATES *****

CITY           SKY/WX    TMP DP  RH WIND       PRES   REMARKS
GLASGOW MT     FAIR      23  21  92 W8        29.34F WCI  14
GREAT FALLS MT FAIR      21  15  78 CALM      29.32F
CHEYENNE WY    FAIR      23  18  81 CALM      29.35F
SCOTTSBLUFF NE FAIR      23  19  85 NE3       29.39F
OMAHA NE       CLOUDY    41  38  89 CALM      29.38S FOG
DES MOINES IA  FOG       43  42  97 S6        29.39S VSB 1/4
DAVENPORT IA   FAIR      44  43  96 S12       29.44F FOG
CHICAGO IL     CLOUDY    47  46  97 S8        29.53S FOG
EAU CLAIRE WI  CLOUDY    34  34 100 E9        29.48F FOG
LA CROSSE WI   CLOUDY    39  36  89 VRB3      29.46F FOG
$$

  *****  SOME NATIONAL WEATHER *****

CITY           SKY/WX    TMP DP  RH WIND       PRES   REMARKS
LA GUARDIA NY  CLOUDY    45  41  86 SW6       29.88F
RALEIGH NC     FOG       51  51 100 CALM      29.92R VSB 1/8
ATLANTA GA     FOG       63  62  97 E6        29.80F VSB 1/4
NEW ORLEANS LA CLOUDY    73  69  87 S20G30    29.66R
OKLAHOMA CITY  FAIR      37  32  82 CALM      29.52S
ALBUQUERQUE NM MOCLDY    38  36  92 S9        29.45F
SALT LAKE CITY LGT SNOW  33  32  96 CALM      29.27S FOG
LOS ANGELES CA FAIR      53  43  68 NW12      29.67R
BOISE ID       CLOUDY    34  31  88 SE8       29.32R
SEATTLE WA     CLOUDY    43  38  82 S3        29.24R
$$

*** WEATHER ACROSS MANITOBA...SASKATCHEWAN AND ONTARIO ***
                ***ONTARIO***

CITY           SKY/WX    TMP DP  RH WIND       PRES   REMARKS
GERALDTON      FRZ DRZL  32  32 100 E5        29.62F VSB 1/8
THUNDER BAY    DRIZZLE   34  34 100 E10       29.59F FOG
SIOUX LOOKOUT  LGT RAIN  36  34  93 SE3       29.55S FOG
TORONTO        FOG       36  36 100 S7        29.78R VSB 1/8
BIG TROUT LK   FLURRIES  27  27 100 SE8       29.70S WCI  18
PICKLE LAKE    DRIZZLE   32  32 100 E6        29.59  FOG
DRYDEN         LGT RAIN  34  34 100 SE7       29.52F
KENORA         CLOUDY    32  32 100 SE7       29.48F FOG
$$
                *** MANITOBA***

CITY           SKY/WX    TMP DP  RH WIND       PRES   REMARKS
BRANDON        FOG       32  32 100 SE8       29.35S VSB 1   WCI  25
DAUPHIN        LGT SNOW  28  27  93 CALM      29.37F
ISLAND LAKE    CLOUDY    32  32 100 E5        29.58S FOG
PILOT MOUND      N/A     32  32 100 SE10        N/A  WCI  24
THE PAS        CLOUDY    30  28  93 E6        29.42S FOG     WCI  24
THOMPSON       CLOUDY    27  25  93 E6        29.57S WCI  20
WINNIPEG       CLOUDY    36  34  93 SE10      29.44S
LYNN LAKE      CLOUDY    27  27 100 SE7       29.52S FOG     WCI  19
CHURCHILL      FLURRIES  19  18  93 SE17      29.81S WCI   4
GILLAM         FLURRIES  28  27  93 SE6       29.68R WCI  22
$$
                ***SASKATCHEWAN***

CITY           SKY/WX    TMP DP  RH WIND       PRES   REMARKS
ESTEVAN        FOG       14  12  92 VRB2      29.29S VSB 1/8
KINDERSLEY     FOG       21  21 100 N7        29.35R VSB 1/8 WCI  13
LLOYDMINSTER   SNOW      21  19  93 NW7       29.39R VSB 3/8 WCI  13
PRINCE ALBERT  CLOUDY    28  27  93 NE7       29.37F WCI  21
REGINA         CLOUDY    18  16  93 S3        29.27F FOG
YORKTON        LGT SNOW  27  27 100 S8        29.30S WCI  18
N. BATTLEFORD  CLOUDY    25 N/A N/A NW3       29.39R
LA RONGE       FOG       27  27 100 NE9       29.45S VSB 3/8 WCI  17
SASKATOON      CLOUDY    28  27  93 N9        29.35S WCI  20
SWIFT CURRENT  HVY SNOW  25  25 100 NW12      29.30R VSB 1/4 WCI  14
$$
NOTE: THESE ARE AUTOMATED STATIONS WITH LIMITED QUALITY CONTROL
      "FAIR" INDICATES FEW OR NO CLOUDS BELOW 12,000 FEET WITH NO
      SIGNIFICANT WEATHER AND/OR OBSTRUCTIONS TO VISIBILITY.
      SKY/WX - SKY CONDITION AND SIGNIFICANT WEATHER.
      TMP - AIR TEMPERATURE.    DP   - DEWPOINT TEMPERATURE.
      RH  - RELATIVE HUMIDITY.  PRES - PRESSURE.
      HX  - HEAT INDEX.         WCI  - WIND CHILL INDEX.
$




USA.gov is the U.S. government's official web portal to all federal, state and local government web resources and services.